,,Stat6,,Stat2,,Stat8,,Stat9,,Stat10,,Wind1,,Wind1,
time,status,PA1M_AVG,status,PR1M_SUM,status,RH1M_AVG,status,SR1M_AVG,status,TA1M_AVG,status,W1dAve1m,status,W1sAve1m,
2004-12-06, 00:00:01,VALID,919.907,VALID,0,VALID,100,VALID,-0.0169808,VALID,19.8115,VALID,234,VALID,0.225446,
2004-12-06, 00:01:00,VALID,919.905,VALID,0,VALID,100,VALID,-0.0849042,VALID,19.8115,VALID,233,VALID,0.219271,
2004-12-06, 00:02:00,VALID,919.916,VALID,0,VALID,100,VALID,-0.0509425,VALID,19.815,VALID,233,VALID,0.310352,
2004-12-06, 00:03:00,VALID,919.917,VALID,0,VALID,100,VALID,-0.0339617,VALID,19.7917,VALID,233,VALID,0.18532,
2004-12-06, 00:04:00,VALID,919.924,VALID,0,VALID,100,VALID,-0.0169808,VALID,19.8016,VALID,233,VALID,0.116616,
2004-12-06, 00:05:00,VALID,919.93,VALID,0,VALID,100,VALID,-0.0339617,VALID,19.8018,VALID,233,VALID,0.0732887,
2004-12-06, 00:06:00,VALID,919.927,VALID,0,VALID,100,VALID,-0.0169808,VALID,19.8172,VALID,233,VALID,0.0276163,
2004-12-06, 00:07:00,VALID,919.925,VALID,0,VALID,100,VALID,-0.0339617,VALID,19.8177,VALID,285,VALID,0.29144,
2004-12-06, 00:08:00,VALID,919.929,VALID,0,VALID,100,VALID,-0.0169808,VALID,19.8408,VALID,298,VALID,0.0209517,
2004-12-06, 00:09:00,VALID,919.903,VALID,0,VALID,100,VALID,-0.0169808,VALID,19.8466,VALID,298,VALID,0,
2004-12-06, 00:10:00,VALID,919.904,VALID,0,VALID,100,VALID,0,VALID,19.8729,VALID,298,VALID,0,
2004-12-06, 00:11:00,VALID,919.913,VALID,0,VALID,100,VALID,-0.0339617,VALID,19.8664,VALID,298,VALID,0,
2004-12-06, 00:12:01,VALID,919.909,VALID,0,VALID,100,VALID,-0.0339617,VALID,19.8662,VALID,298,VALID,0,
2004-12-06, 00:13:00,VALID,919.888,VALID,0,VALID,100,VALID,0,VALID,19.8888,VALID,298,VALID,0.0710565,
2004-12-06, 00:14:00,VALID,919.89,VALID,0,VALID,100,VALID,0.0169808,VALID,19.9275,VALID,298,VALID,0.0216619,
2004-12-06, 00:15:00,VALID,919.879,VALID,0,VALID,100,VALID,0,VALID,19.9467,VALID,333,VALID,0.279297,
2004-12-06, 00:16:01,VALID,919.853,VALID,0,VALID,100,VALID,0,VALID,19.9273,VALID,349,VALID,0.013529,
2004-12-06, 00:17:00,VALID,919.847,VALID,0,VALID,100,VALID,0,VALID,19.9012,VALID,349,VALID,0.110491,
2004-12-06, 00:18:00,VALID,919.841,VALID,0,VALID,100,VALID,0,VALID,19.8853,VALID,349,VALID,0.0150923,
2004-12-06, 00:19:01,VALID,919.82,VALID,0,VALID,100,VALID,0,VALID,19.8821,VALID,5,VALID,0.529726,
2004-12-06, 00:20:00,VALID,919.808,VALID,0,VALID,100,VALID,-0.0169808,VALID,19.8985,VALID,21,VALID,0.833757,
2004-12-06, 00:21:00,VALID,919.796,VALID,0,VALID,100,VALID,0,VALID,19.9181,VALID,14,VALID,0.997904,
2004-12-06, 00:22:00,VALID,919.773,VALID,0,VALID,100,VALID,-0.0169808,VALID,19.9243,VALID,19,VALID,0.436955,
2004-12-06, 00:23:00,VALID,919.778,VALID,0,VALID,100,VALID,-0.0169808,VALID,19.9109,VALID,8,VALID,0.34375,
2004-12-06, 00:24:01,VALID,919.739,VALID,0,VALID,100,VALID,-0.0169808,VALID,19.8851,VALID,10,VALID,0.819196,
2004-12-06, 00:25:00,VALID,919.718,VALID,0,VALID,100,VALID,-0.0169808,VALID,19.8923,VALID,26,VALID,0.426314,
2004-12-06, 00:26:00,VALID,919.723,VALID,0,VALID,100,VALID,-0.0169808,VALID,19.8851,VALID,21,VALID,0.527876,
2004-12-06, 00:27:00,VALID,919.712,VALID,0.2,VALID,100,VALID,-0.0169808,VALID,19.8958,VALID,29,VALID,0.592416,
2004-12-06, 00:28:00,VALID,919.702,VALID,0,VALID,100,VALID,-0.0169808,VALID,19.8759,VALID,15,VALID,0.828311,
2004-12-06, 00:29:00,VALID,919.684,VALID,0,VALID,100,VALID,-0.0169808,VALID,19.8731,VALID,23,VALID,1.16388,
2004-12-06, 00:30:00,VALID,919.676,VALID,0,VALID,100,VALID,-0.0169808,VALID,19.8729,VALID,17,VALID,1.01354,
2004-12-06, 00:31:01,VALID,919.654,VALID,0,VALID,100,VALID,-0.0849042,VALID,19.857,VALID,8,VALID,1.29724,
2004-12-06, 00:32:01,VALID,919.665,VALID,0,VALID,100,VALID,-0.0339617,VALID,19.811,VALID,11,VALID,1.02998,
2004-12-06, 00:33:00,VALID,919.635,VALID,0,VALID,100,VALID,0,VALID,19.7989,VALID,21,VALID,1.15092,
2004-12-06, 00:34:00,VALID,919.616,VALID,0,VALID,100,VALID,0,VALID,19.7951,VALID,25,VALID,1.08809,
2004-12-06, 00:35:00,VALID,919.606,VALID,0,VALID,100,VALID,0.0169808,VALID,19.7981,VALID,23,VALID,1.23065,
2004-12-06, 00:36:00,VALID,919.605,VALID,0,VALID,100,VALID,0,VALID,19.8016,VALID,21,VALID,1.19886,
2004-12-06, 00:37:00,VALID,919.593,VALID,0,VALID,100,VALID,-0.0169808,VALID,19.7979,VALID,14,VALID,1.08036,
2004-12-06, 00:38:00,VALID,919.587,VALID,0.2,VALID,100,VALID,0,VALID,19.7792,VALID,355,VALID,0.772507,
2004-12-06, 00:39:00,VALID,919.585,VALID,0,VALID,100,VALID,0,VALID,19.7596,VALID,20,VALID,0.888765,
2004-12-06, 00:40:01,VALID,919.582,VALID,0,VALID,100,VALID,0.0169808,VALID,19.7531,VALID,37,VALID,0.84282,
2004-12-06, 00:41:00,VALID,919.597,VALID,0,VALID,100,VALID,0,VALID,19.7599,VALID,30,VALID,1.12938,
2004-12-06, 00:42:00,VALID,919.61,VALID,0,VALID,100,VALID,0,VALID,19.7723,VALID,16,VALID,1.10461,
2004-12-06, 00:43:00,VALID,919.597,VALID,0,VALID,100,VALID,0,VALID,19.7524,VALID,8,VALID,1.37305,
2004-12-06, 00:44:00,VALID,919.593,VALID,0,VALID,100,VALID,0.0169808,VALID,19.7074,VALID,5,VALID,1.7721,
2004-12-06, 00:45:01,VALID,919.582,VALID,0,VALID,100,VALID,0,VALID,19.6595,VALID,7,VALID,1.78852,
2004-12-06, 00:46:01,VALID,919.587,VALID,0,VALID,100,VALID,0,VALID,19.6528,VALID,24,VALID,1.20957,
2004-12-06, 00:47:00,VALID,919.583,VALID,0,VALID,100,VALID,0.0169808,VALID,19.6595,VALID,16,VALID,1.24836,
2004-12-06, 00:48:01,VALID,919.573,VALID,0,VALID,100,VALID,0,VALID,19.6662,VALID,7,VALID,1.6934,
2004-12-06, 00:49:00,VALID,919.558,VALID,0,VALID,100,VALID,0.0169808,VALID,19.5882,VALID,337,VALID,1.47177,
2004-12-06, 00:50:00,VALID,919.56,VALID,0,VALID,100,VALID,0.0169808,VALID,19.5661,VALID,9,VALID,1.10938,
2004-12-06, 00:51:00,VALID,919.56,VALID,0.2,VALID,100,VALID,-0.0169808,VALID,19.5723,VALID,1,VALID,0.892223,
2004-12-06, 00:52:01,VALID,919.543,VALID,0,VALID,100,VALID,0,VALID,19.579,VALID,15,VALID,1.56441,
2004-12-06, 00:53:00,VALID,919.532,VALID,0,VALID,100,VALID,0.0339617,VALID,19.5591,VALID,11,VALID,1.49392,
2004-12-06, 00:54:00,VALID,919.522,VALID,0,VALID,100,VALID,0.0339617,VALID,19.5338,VALID,358,VALID,1.41109,
2004-12-06, 00:55:01,VALID,919.504,VALID,0,VALID,100,VALID,0.0509425,VALID,19.5306,VALID,11,VALID,0.856831,
2004-12-06, 00:56:00,VALID,919.51,VALID,0,VALID,100,VALID,0,VALID,19.5201,VALID,301,VALID,0.836825,
2004-12-06, 00:57:01,VALID,919.508,VALID,0,VALID,100,VALID,0,VALID,19.5402,VALID,13,VALID,1.33807,
2004-12-06, 00:58:00,VALID,919.486,VALID,0,VALID,100,VALID,-0.0169808,VALID,19.5174,VALID,24,VALID,0.830487,
2004-12-06, 00:59:00,VALID,919.478,VALID,0,VALID,100,VALID,0,VALID,19.5263,VALID,17,VALID,0.885938,
2004-12-06, 01:00:01,VALID,919.463,VALID,0,VALID,100,VALID,-0.0169808,VALID,19.5176,VALID,11,VALID,1.26042,
2004-12-06, 01:01:01,VALID,919.448,VALID,0,VALID,100,VALID,0,VALID,19.4687,VALID,317,VALID,1.34096,
2004-12-06, 01:02:00,VALID,919.437,VALID,0,VALID,100,VALID,0,VALID,19.4692,VALID,12,VALID,1.22563,
2004-12-06, 01:03:00,VALID,919.422,VALID,0,VALID,100,VALID,0,VALID,19.4692,VALID,359,VALID,1.12118,
2004-12-06, 01:04:00,VALID,919.389,VALID,0,VALID,100,VALID,0.0339617,VALID,19.4754,VALID,21,VALID,0.922266,
2004-12-06, 01:05:00,VALID,919.364,VALID,0,VALID,100,VALID,0,VALID,19.4819,VALID,7,VALID,0.504616,
2004-12-06, 01:06:01,VALID,919.347,VALID,0,VALID,100,VALID,0,VALID,19.4814,VALID,5,VALID,0.32279,
2004-12-06, 01:07:00,VALID,919.336,VALID,0.2,VALID,100,VALID,0.0339617,VALID,19.5147,VALID,7,VALID,0.726181,
2004-12-06, 01:08:01,VALID,919.318,VALID,0,VALID,100,VALID,0.0339617,VALID,19.5072,VALID,353,VALID,0.576637,
2004-12-06, 01:09:01,VALID,919.308,VALID,0,VALID,100,VALID,0,VALID,19.5171,VALID,28,VALID,0.422247,
2004-12-06, 01:10:01,VALID,919.292,VALID,0,VALID,100,VALID,0,VALID,19.5407,VALID,16,VALID,0.269336,
2004-12-06, 01:11:00,VALID,919.275,VALID,0,VALID,100,VALID,0.0169808,VALID,19.5504,VALID,21,VALID,0.637536,
2004-12-06, 01:12:00,VALID,919.269,VALID,0,VALID,100,VALID,0.0169808,VALID,19.5462,VALID,10,VALID,0.380526,
2004-12-06, 01:13:01,VALID,919.266,VALID,0,VALID,100,VALID,0,VALID,19.5497,VALID,15,VALID,0.443496,
2004-12-06, 01:14:00,VALID,919.263,VALID,0,VALID,100,VALID,0,VALID,19.5691,VALID,21,VALID,0.558984,
2004-12-06, 01:15:00,VALID,919.255,VALID,0,VALID,100,VALID,0,VALID,19.5696,VALID,22,VALID,0.427827,
2004-12-06, 01:16:00,VALID,919.258,VALID,0,VALID,100,VALID,0,VALID,19.5723,VALID,22,VALID,0.2375,
2004-12-06, 01:17:01,VALID,919.273,VALID,0,VALID,100,VALID,0.0339617,VALID,19.5629,VALID,21,VALID,0.203497,
2004-12-06, 01:18:01,VALID,919.281,VALID,0.2,VALID,100,VALID,0,VALID,19.543,VALID,21,VALID,0.704459,
2004-12-06, 01:19:00,VALID,919.276,VALID,0,VALID,100,VALID,0.0339617,VALID,19.5591,VALID,20,VALID,0.68767,
2004-12-06, 01:20:00,VALID,919.279,VALID,0,VALID,100,VALID,0.0169808,VALID,19.5728,VALID,19,VALID,0.508765,
2004-12-06, 01:21:00,VALID,919.263,VALID,0,VALID,100,VALID,0.0339617,VALID,19.5629,VALID,19,VALID,0.475497,
2004-12-06, 01:22:00,VALID,919.258,VALID,0,VALID,100,VALID,0.0339617,VALID,19.5658,VALID,15,VALID,0.480655,
2004-12-06, 01:23:00,VALID,919.255,VALID,0,VALID,100,VALID,0,VALID,19.5494,VALID,346,VALID,0.488735,
2004-12-06, 01:24:01,VALID,919.249,VALID,0,VALID,100,VALID,0.0679233,VALID,19.5467,VALID,348,VALID,0.303163,
2004-12-06, 01:25:00,VALID,919.229,VALID,0,VALID,100,VALID,0,VALID,19.5308,VALID,355,VALID,0.550223,
2004-12-06, 01:26:00,VALID,919.226,VALID,0,VALID,100,VALID,-0.0169808,VALID,19.5271,VALID,6,VALID,0.675509,
2004-12-06, 01:27:01,VALID,919.202,VALID,0,VALID,100,VALID,0.0169808,VALID,19.5469,VALID,21,VALID,1.21044,
2004-12-06, 01:28:00,VALID,919.177,VALID,0,VALID,100,VALID,0,VALID,19.5268,VALID,22,VALID,1.05938,
2004-12-06, 01:29:00,VALID,919.163,VALID,0,VALID,100,VALID,0.0169808,VALID,19.5303,VALID,28,VALID,1.14535,
2004-12-06, 01:30:01,VALID,919.157,VALID,0,VALID,100,VALID,0.0169808,VALID,19.5174,VALID,18,VALID,0.751776,
2004-12-06, 01:31:00,VALID,919.133,VALID,0,VALID,100,VALID,0.0169808,VALID,19.5176,VALID,14,VALID,0.996652,
2004-12-06, 01:32:01,VALID,919.136,VALID,0.2,VALID,100,VALID,-0.0339617,VALID,19.4824,VALID,355,VALID,0.458212,
2004-12-06, 01:33:00,VALID,919.124,VALID,0,VALID,100,VALID,-0.0339617,VALID,19.4692,VALID,355,VALID,0.426962,
2004-12-06, 01:34:00,VALID,919.131,VALID,0,VALID,100,VALID,0.0169808,VALID,19.4429,VALID,355,VALID,0.405134,
2004-12-06, 01:35:01,VALID,919.125,VALID,0,VALID,100,VALID,0.0339617,VALID,19.4203,VALID,355,VALID,0.24891,
2004-12-06, 01:36:01,VALID,919.129,VALID,0,VALID,100,VALID,0.0169808,VALID,19.378,VALID,356,VALID,0.414757,
2004-12-06, 01:37:01,VALID,919.129,VALID,0,VALID,100,VALID,0,VALID,19.3917,VALID,359,VALID,0.43457,
2004-12-06, 01:38:00,VALID,919.119,VALID,0,VALID,100,VALID,0,VALID,19.3721,VALID,322,VALID,0.206174,
2004-12-06, 01:39:00,VALID,919.122,VALID,0,VALID,100,VALID,0,VALID,19.343,VALID,10,VALID,0.632639,
2004-12-06, 01:40:00,VALID,919.107,VALID,0,VALID,100,VALID,0,VALID,19.3269,VALID,3,VALID,0.573475,
2004-12-06, 01:41:00,VALID,919.108,VALID,0,VALID,100,VALID,-0.0169808,VALID,19.3142,VALID,19,VALID,0.677257,
2004-12-06, 01:42:00,VALID,919.089,VALID,0.2,VALID,100,VALID,0,VALID,19.3433,VALID,24,VALID,0.841933,
2004-12-06, 01:43:00,VALID,919.061,VALID,0,VALID,100,VALID,-0.0169808,VALID,19.3599,VALID,21,VALID,0.645486,
2004-12-06, 01:44:01,VALID,919.059,VALID,0,VALID,100,VALID,0,VALID,19.3497,VALID,21,VALID,0.610305,
2004-12-06, 01:45:01,VALID,919.038,VALID,0,VALID,100,VALID,0,VALID,19.3497,VALID,22,VALID,0.597301,
2004-12-06, 01:46:00,VALID,919.01,VALID,0,VALID,100,VALID,0.0169808,VALID,19.3527,VALID,11,VALID,0.26863,
2004-12-06, 01:47:01,VALID,918.991,VALID,0,VALID,100,VALID,0,VALID,19.337,VALID,349,VALID,0.605859,
2004-12-06, 01:48:01,VALID,918.976,VALID,0,VALID,100,VALID,-0.0169808,VALID,19.3144,VALID,349,VALID,0.505907,
2004-12-06, 01:49:00,VALID,918.96,VALID,0,VALID,100,VALID,0,VALID,19.3114,VALID,349,VALID,0.152716,
2004-12-06, 01:50:00,VALID,918.93,VALID,0,VALID,100,VALID,0,VALID,19.3236,VALID,349,VALID,0.0316134,
2004-12-06, 01:51:00,VALID,918.928,VALID,0,VALID,100,VALID,-0.0169808,VALID,19.3564,VALID,349,VALID,0.130208,
2004-12-06, 01:52:00,VALID,918.901,VALID,0,VALID,100,VALID,0,VALID,19.3691,VALID,355,VALID,0.496007,
2004-12-06, 01:53:01,VALID,918.88,VALID,0.2,VALID,100,VALID,0,VALID,19.389,VALID,358,VALID,0.527158,
2004-12-06, 01:54:01,VALID,918.86,VALID,0,VALID,100,VALID,0,VALID,19.3922,VALID,359,VALID,0.567951,
2004-12-06, 01:55:00,VALID,918.844,VALID,0,VALID,100,VALID,0,VALID,19.379,VALID,3,VALID,0.663707,
2004-12-06, 01:56:01,VALID,918.814,VALID,0,VALID,100,VALID,0.0169808,VALID,19.3395,VALID,3,VALID,0.3375,
2004-12-06, 01:57:01,VALID,918.779,VALID,0,VALID,100,VALID,0,VALID,19.3465,VALID,3,VALID,0.314024,
2004-12-06, 01:58:01,VALID,918.755,VALID,0,VALID,100,VALID,0,VALID,19.3435,VALID,20,VALID,0.673328,
2004-12-06, 01:59:01,VALID,918.735,VALID,0,VALID,100,VALID,0,VALID,19.3594,VALID,27,VALID,0.694568,
2004-12-06, 02:00:00,VALID,918.703,VALID,0,VALID,100,VALID,0.0169808,VALID,19.3462,VALID,23,VALID,0.561942,
2004-12-06, 02:01:00,VALID,918.703,VALID,0,VALID,100,VALID,0,VALID,19.3395,VALID,29,VALID,0.545099,
2004-12-06, 02:02:01,VALID,918.672,VALID,0,VALID,100,VALID,0,VALID,19.3532,VALID,29,VALID,0.606889,
2004-12-06, 02:03:00,VALID,918.659,VALID,0,VALID,100,VALID,0,VALID,19.3437,VALID,33,VALID,0.576215,
2004-12-06, 02:04:01,VALID,918.632,VALID,0,VALID,100,VALID,0.0169808,VALID,19.3363,VALID,34,VALID,0.667683,
2004-12-06, 02:05:01,VALID,918.622,VALID,0,VALID,100,VALID,0,VALID,19.3043,VALID,35,VALID,0.773624,
2004-12-06, 02:06:01,VALID,918.633,VALID,0,VALID,100,VALID,0,VALID,19.3147,VALID,27,VALID,0.509766,
2004-12-06, 02:07:01,VALID,918.611,VALID,0,VALID,100,VALID,0,VALID,19.3211,VALID,15,VALID,0.423611,
2004-12-06, 02:08:00,VALID,918.602,VALID,0,VALID,100,VALID,-0.0339617,VALID,19.308,VALID,5,VALID,0.118359,
2004-12-06, 02:09:01,VALID,918.6,VALID,0,VALID,100,VALID,0,VALID,19.311,VALID,5,VALID,0.218178,
2004-12-06, 02:10:01,VALID,918.589,VALID,0,VALID,100,VALID,-0.0169808,VALID,19.3015,VALID,5,VALID,0.106836,
2004-12-06, 02:11:01,VALID,918.584,VALID,0,VALID,100,VALID,0,VALID,19.3015,VALID,5,VALID,0.0236192,
2004-12-06, 02:12:01,VALID,918.578,VALID,0,VALID,100,VALID,-0.0169808,VALID,19.3077,VALID,5,VALID,0,
2004-12-06, 02:13:01,VALID,918.566,VALID,0,VALID,100,VALID,0,VALID,19.3179,VALID,5,VALID,0,
2004-12-06, 02:14:01,VALID,918.547,VALID,0,VALID,100,VALID,0,VALID,19.3144,VALID,5,VALID,0,
2004-12-06, 02:15:01,VALID,918.532,VALID,0,VALID,100,VALID,0,VALID,19.2985,VALID,5,VALID,0.0167411,
2004-12-06, 02:16:01,VALID,918.518,VALID,0,VALID,100,VALID,0,VALID,19.2926,VALID,12,VALID,0.266797,
2004-12-06, 02:17:00,VALID,918.517,VALID,0,VALID,100,VALID,0.0169808,VALID,19.2687,VALID,52,VALID,0.394622,
2004-12-06, 02:18:01,VALID,918.491,VALID,0,VALID,100,VALID,-0.0169808,VALID,19.263,VALID,127,VALID,0.508743,
2004-12-06, 02:19:01,VALID,918.468,VALID,0,VALID,100,VALID,0,VALID,19.2603,VALID,129,VALID,0.573847,
2004-12-06, 02:20:01,VALID,918.451,VALID,0,VALID,100,VALID,0,VALID,19.2364,VALID,145,VALID,0.67702,
2004-12-06, 02:21:01,VALID,918.422,VALID,0,VALID,100,VALID,0,VALID,19.2307,VALID,151,VALID,0.618641,
2004-12-06, 02:22:01,VALID,918.41,VALID,0,VALID,100,VALID,-0.0169808,VALID,19.2208,VALID,151,VALID,0.503906,
2004-12-06, 02:23:01,VALID,918.386,VALID,0,VALID,100,VALID,0.0339617,VALID,19.2245,VALID,152,VALID,0.628239,
2004-12-06, 02:24:01,VALID,918.382,VALID,0,VALID,100,VALID,0,VALID,19.2014,VALID,155,VALID,0.561756,
2004-12-06, 02:25:01,VALID,918.368,VALID,0,VALID,100,VALID,0,VALID,19.2121,VALID,155,VALID,0.520579,
2004-12-06, 02:26:01,VALID,918.359,VALID,0,VALID,100,VALID,0,VALID,19.192,VALID,155,VALID,0.527876,
2004-12-06, 02:27:01,VALID,918.348,VALID,0,VALID,100,VALID,0,VALID,19.1723,VALID,155,VALID,0.503906,
2004-12-06, 02:28:01,VALID,918.329,VALID,0,VALID,100,VALID,0,VALID,19.1726,VALID,154,VALID,0.601935,
2004-12-06, 02:29:01,VALID,918.306,VALID,0,VALID,100,VALID,0,VALID,19.1661,VALID,148,VALID,0.602083,
2004-12-06, 02:30:01,VALID,918.298,VALID,0,VALID,100,VALID,0.0169808,VALID,19.1594,VALID,148,VALID,0.599657,
2004-12-06, 02:31:01,VALID,918.282,VALID,0,VALID,100,VALID,0.0169808,VALID,19.1562,VALID,148,VALID,0.542302,
2004-12-06, 02:32:01,VALID,918.275,VALID,0,VALID,100,VALID,0.0169808,VALID,19.153,VALID,155,VALID,0.866071,
2004-12-06, 02:33:01,VALID,918.25,VALID,0,VALID,100,VALID,0.0679233,VALID,19.149,VALID,144,VALID,0.656613,
2004-12-06, 02:34:01,VALID,918.242,VALID,0,VALID,100,VALID,0.0509425,VALID,19.1627,VALID,154,VALID,0.878534,
2004-12-06, 02:35:01,VALID,918.236,VALID,0,VALID,100,VALID,0.0339617,VALID,19.1433,VALID,154,VALID,0.752841,
2004-12-06, 02:36:01,VALID,918.229,VALID,0,VALID,100,VALID,0.0339617,VALID,19.1532,VALID,155,VALID,0.570858,
2004-12-06, 02:37:01,VALID,918.219,VALID,0,VALID,100,VALID,0.0169808,VALID,19.1401,VALID,143,VALID,0.678597,
2004-12-06, 02:38:01,VALID,918.184,VALID,0,VALID,100,VALID,0.0169808,VALID,19.1264,VALID,168,VALID,0.789993,
2004-12-06, 02:39:01,VALID,918.173,VALID,0,VALID,100,VALID,0.0339617,VALID,19.1269,VALID,143,VALID,0.727121,
2004-12-06, 02:40:00,VALID,918.171,VALID,0,VALID,100,VALID,0.0339617,VALID,19.1038,VALID,158,VALID,1.10137,
2004-12-06, 02:41:00,VALID,918.157,VALID,0,VALID,100,VALID,0.0679233,VALID,19.1043,VALID,159,VALID,0.791602,
2004-12-06, 02:42:00,VALID,918.16,VALID,0,VALID,100,VALID,0.0169808,VALID,19.0941,VALID,147,VALID,0.682958,
2004-12-06, 02:43:00,VALID,918.137,VALID,0,VALID,100,VALID,0.0679233,VALID,19.0946,VALID,151,VALID,0.977951,
2004-12-06, 02:44:00,VALID,918.131,VALID,0,VALID,100,VALID,0.0849042,VALID,19.0941,VALID,149,VALID,0.955793,
2004-12-06, 02:45:00,VALID,918.12,VALID,0,VALID,100,VALID,0.0679233,VALID,19.0946,VALID,141,VALID,0.829215,
2004-12-06, 02:46:00,VALID,918.114,VALID,0,VALID,100,VALID,0.0679233,VALID,19.0944,VALID,135,VALID,1.03681,
2004-12-06, 02:47:00,VALID,918.11,VALID,0,VALID,100,VALID,0.0169808,VALID,19.0856,VALID,141,VALID,0.807776,
2004-12-06, 02:48:00,VALID,918.102,VALID,0,VALID,100,VALID,-0.0679233,VALID,19.0866,VALID,147,VALID,0.73418,
2004-12-06, 02:49:00,VALID,918.085,VALID,0,VALID,100,VALID,-0.0509425,VALID,19.0831,VALID,130,VALID,0.675426,
2004-12-06, 02:50:00,VALID,918.065,VALID,0,VALID,100,VALID,-0.0679233,VALID,19.0799,VALID,141,VALID,1.31498,
2004-12-06, 02:51:00,VALID,918.038,VALID,0,VALID,100,VALID,-0.0679233,VALID,19.0799,VALID,122,VALID,1.10398,
2004-12-06, 02:52:00,VALID,918.03,VALID,0,VALID,100,VALID,-0.0509425,VALID,19.0702,VALID,135,VALID,1.51581,
2004-12-06, 02:53:00,VALID,918.016,VALID,0,VALID,100,VALID,-0.0509425,VALID,19.067,VALID,137,VALID,1.44588,
2004-12-06, 02:54:00,VALID,918.006,VALID,0,VALID,100,VALID,-0.0679233,VALID,19.064,VALID,120,VALID,1.09335,
2004-12-06, 02:55:00,VALID,917.987,VALID,0,VALID,100,VALID,-0.0849042,VALID,19.0345,VALID,135,VALID,1.17793,
2004-12-06, 02:56:00,VALID,917.968,VALID,0,VALID,100,VALID,-0.0679233,VALID,19.0412,VALID,123,VALID,0.831616,
2004-12-06, 02:57:00,VALID,917.939,VALID,0,VALID,100,VALID,-0.0339617,VALID,19.0377,VALID,120,VALID,0.866642,
2004-12-06, 02:58:00,VALID,917.921,VALID,0,VALID,100,VALID,-0.0509425,VALID,19.0416,VALID,88,VALID,0.879192,
2004-12-06, 02:59:00,VALID,917.912,VALID,0,VALID,100,VALID,-0.0849042,VALID,19.0285,VALID,122,VALID,0.701672,
2004-12-06, 03:00:00,VALID,917.899,VALID,0,VALID,100,VALID,-0.0849042,VALID,19.0287,VALID,123,VALID,0.869792,
2004-12-06, 03:01:00,VALID,917.892,VALID,0,VALID,100,VALID,-0.0509425,VALID,19.022,VALID,123,VALID,0.981318,
2004-12-06, 03:02:00,VALID,917.877,VALID,0,VALID,100,VALID,-0.101885,VALID,19.0121,VALID,129,VALID,1.09115,
2004-12-06, 03:03:00,VALID,917.883,VALID,0,VALID,100,VALID,-0.0509425,VALID,19.019,VALID,135,VALID,0.93099,
2004-12-06, 03:04:00,VALID,917.866,VALID,0,VALID,100,VALID,-0.0339617,VALID,19.0091,VALID,139,VALID,1.32899,
2004-12-06, 03:05:00,VALID,917.882,VALID,0,VALID,100,VALID,-0.0679233,VALID,18.9992,VALID,135,VALID,1.20469,
2004-12-06, 03:06:00,VALID,917.86,VALID,0,VALID,100,VALID,-0.0679233,VALID,18.9897,VALID,145,VALID,1.00747,
2004-12-06, 03:07:00,VALID,917.851,VALID,0,VALID,100,VALID,-0.0849042,VALID,18.9962,VALID,143,VALID,0.981286,
2004-12-06, 03:08:00,VALID,917.858,VALID,0,VALID,100,VALID,-0.0849042,VALID,18.9897,VALID,139,VALID,1.15643,
2004-12-06, 03:09:00,VALID,917.847,VALID,0,VALID,100,VALID,-0.0509425,VALID,18.986,VALID,143,VALID,1.27639,
2004-12-06, 03:10:00,VALID,917.854,VALID,0,VALID,100,VALID,-0.0339617,VALID,18.9925,VALID,137,VALID,1.5609,
2004-12-06, 03:11:00,VALID,917.83,VALID,0,VALID,100,VALID,-0.0849042,VALID,18.9964,VALID,145,VALID,1.20839,
2004-12-06, 03:12:00,VALID,917.821,VALID,0,VALID,100,VALID,-0.0509425,VALID,18.9858,VALID,140,VALID,1.48772,
2004-12-06, 03:13:00,VALID,917.815,VALID,0,VALID,100,VALID,-0.0679233,VALID,18.993,VALID,145,VALID,1.16319,
2004-12-06, 03:14:00,VALID,917.812,VALID,0,VALID,100,VALID,-0.0339617,VALID,18.9826,VALID,129,VALID,1.03659,
2004-12-06, 03:15:00,VALID,917.793,VALID,0,VALID,100,VALID,-0.0849042,VALID,18.9766,VALID,111,VALID,1.06595,
2004-12-06, 03:16:00,VALID,917.792,VALID,0,VALID,100,VALID,-0.0509425,VALID,18.9669,VALID,115,VALID,0.786701,
2004-12-06, 03:17:00,VALID,917.777,VALID,0,VALID,100,VALID,-0.0679233,VALID,18.9567,VALID,104,VALID,1.2939,
2004-12-06, 03:18:00,VALID,917.763,VALID,0,VALID,100,VALID,-0.0169808,VALID,18.957,VALID,110,VALID,0.853981,
2004-12-06, 03:19:00,VALID,917.755,VALID,0,VALID,100,VALID,0,VALID,18.9609,VALID,114,VALID,1.34989,
2004-12-06, 03:20:00,VALID,917.742,VALID,0,VALID,100,VALID,0.0169808,VALID,18.9468,VALID,125,VALID,0.763579,
2004-12-06, 03:21:00,VALID,917.74,VALID,0,VALID,100,VALID,-0.0169808,VALID,18.956,VALID,118,VALID,1.05107,
2004-12-06, 03:22:00,VALID,917.728,VALID,0,VALID,100,VALID,0,VALID,18.9602,VALID,122,VALID,0.791016,
2004-12-06, 03:23:00,VALID,917.712,VALID,0,VALID,100,VALID,0,VALID,18.9627,VALID,113,VALID,1.51762,
2004-12-06, 03:24:00,VALID,917.704,VALID,0,VALID,100,VALID,0.0169808,VALID,18.9565,VALID,98,VALID,1.41369,
2004-12-06, 03:25:00,VALID,917.686,VALID,0,VALID,100,VALID,0,VALID,18.953,VALID,118,VALID,0.759511,
2004-12-06, 03:26:00,VALID,917.676,VALID,0,VALID,100,VALID,0.0169808,VALID,18.9632,VALID,111,VALID,0.959985,
2004-12-06, 03:27:00,VALID,917.663,VALID,0,VALID,100,VALID,0,VALID,18.9632,VALID,119,VALID,1.2717,
2004-12-06, 03:28:00,VALID,917.653,VALID,0,VALID,100,VALID,0,VALID,18.9634,VALID,129,VALID,0.959263,
2004-12-06, 03:29:00,VALID,917.651,VALID,0,VALID,100,VALID,-0.0169808,VALID,18.95,VALID,142,VALID,1.18676,
2004-12-06, 03:30:00,VALID,917.637,VALID,0,VALID,100,VALID,0,VALID,18.95,VALID,144,VALID,1.24163,
2004-12-06, 03:31:00,VALID,917.626,VALID,0,VALID,100,VALID,0.0339617,VALID,18.9307,VALID,156,VALID,1.31907,
2004-12-06, 03:32:00,VALID,917.595,VALID,0,VALID,100,VALID,-0.0169808,VALID,18.9445,VALID,155,VALID,1.41521,
2004-12-06, 03:33:00,VALID,917.58,VALID,0,VALID,100,VALID,-0.0169808,VALID,18.9341,VALID,155,VALID,1.14281,
2004-12-06, 03:34:00,VALID,917.571,VALID,0,VALID,100,VALID,0.0169808,VALID,18.9373,VALID,154,VALID,1.496,
2004-12-06, 03:35:00,VALID,917.571,VALID,0,VALID,100,VALID,0,VALID,18.9373,VALID,141,VALID,1.11254,
2004-12-06, 03:36:00,VALID,917.566,VALID,0,VALID,100,VALID,-0.0169808,VALID,18.9341,VALID,151,VALID,1.16882,
2004-12-06, 03:37:00,VALID,917.564,VALID,0,VALID,100,VALID,-0.0339617,VALID,18.9406,VALID,152,VALID,1.03027,
2004-12-06, 03:38:00,VALID,917.553,VALID,0,VALID,100,VALID,0,VALID,18.9341,VALID,139,VALID,0.88121,
2004-12-06, 03:39:00,VALID,917.569,VALID,0,VALID,100,VALID,0,VALID,18.9279,VALID,132,VALID,0.90625,
2004-12-06, 03:40:00,VALID,917.571,VALID,0,VALID,100,VALID,0,VALID,18.9214,VALID,115,VALID,0.833576,
2004-12-06, 03:41:00,VALID,917.554,VALID,0,VALID,100,VALID,0.0169808,VALID,18.8986,VALID,113,VALID,1.18768,
2004-12-06, 03:42:00,VALID,917.551,VALID,0,VALID,100,VALID,0,VALID,18.8986,VALID,109,VALID,0.834736,
2004-12-06, 03:43:00,VALID,917.546,VALID,0,VALID,100,VALID,0,VALID,18.8825,VALID,109,VALID,0.99349,
2004-12-06, 03:44:00,VALID,917.551,VALID,0,VALID,100,VALID,0,VALID,18.8827,VALID,115,VALID,1.09813,